Location: Koussan�
(15.2012°N, 12.5548°W)
Time: 18:20:00
(UTC+00:00)

GPS 2-14 Rocket1 - Pass Details

Date: 20 October 2020
Orbit: 476 x 540 km, 20.7° (Epoch: 29 November)

Event Time Altitude Azimuth Distance (km) Brightness Sun altitude
Rises 18:52:41 0° 269° (W) 2,672 8.6 -7.0°
Reaches altitude 10° 18:55:02 10° 275° (W) 1,777 7.0 -7.6°
Maximum altitude 18:59:02 49° 350° (N) 683 3.3 -8.5°
Enters shadow 19:02:44 12° 65° (ENE) 1,652 4.6 -9.4°
